Location: Saint Louis
(38.6272°N, 90.1978°W)
Time: 12:44:34
(UTC-05:00)

Hubble Space Telescope - Visible Passes

Search period start: 28 July 2015 00:00
Search period end: 07 August 2015 00:00
Orbit: 542 x 545 km, 28.5° (Epoch: 27 July)

Date Brightness Start Highest point End Pass type
(mag) Time Alt. Az. Time Alt. Az. Time Alt. Az.
28 Jul 2.9 05:11:23 10° SSW 05:12:32 11° SSW 05:13:37 10° S visible
03 Aug 2.8 21:25:00 10° SSW 21:26:39 13° S 21:26:39 13° S visible
04 Aug 2.5 21:15:37 10° SSW 21:18:04 15° SSE 21:18:36 15° SSE visible
05 Aug 2.5 21:06:23 10° SSW 21:09:06 17° S 21:10:24 15° SSE visible
06 Aug 2.4 20:57:13 10° SW 21:00:07 18° S 21:02:06 14° SE visible
